User: anonymous
Location: Lawrence
(38.9720°N, 95.2350°W)
Time: 03:23:56
(UTC-05:00)
Language:

JAS-1B - Orbit

View from above orbital plane
View from above orbital plane
View from above satellite
View from above satellite

Ground track
Ground track

The orbit data is extracted from the following two-line orbital elements,

1 20480U 90013C   14274.46894071 -.00000014  00000-0  32491-4 0  8622
2 20480 099.0581 217.6729 0541000 113.0828 006.1974 12.83396522154766
Epoch (UTC): 01 October 2014 11:15:16
Eccentricity: 0.0541000
inclination: 99.0581°
perigee height: 911 km
apogee height: 1745 km
right ascension of ascending node: 217.6729°
argument of perigee: 113.0828°
revolutions per day: 12.83396522
mean anomaly at epoch: 6.1974°
orbit number at epoch: 15476

The dashed part of the orbit path shows where the satellite is in the earth's shadow,  

DLR